Regional Weather Roundup
Issued by NWS Charleston, SC

Home | Current Version | Previous Version | Text Only | Print | Product List | Glossary On
Versions: 1 2 3 4 5 6 7 8 9 10 11 12 13 14 15 16 17 18 19 20 21 22 23 24 25 26 27 28 29 30 31 32 33 34 35 36 37 38 39 40 41 42 43 44 45 46 47 48 49 50
000
ASUS42 KCHS 251428
RWRCHS

REGIONAL WEATHER ROUNDUP
NATIONAL WEATHER SERVICE CHARLESTON SC
1000 AM EDT MON JUL 25 2016

NOTE: "FAIR" INDICATES FEW OR NO CLOUDS BELOW 12,000 FEET WITH NO
SIGNIFICANT WEATHER AND/OR OBSTRUCTIONS TO VISIBILITY.

NOT ALL STATIONS ARE QUALITY CONTROLLED. USE DATA WITH CAUTION...
ESPECIALLY DEWPOINT OBSERVATIONS.

SCZ027-030-031-034>040-042>050-251500-
...SOUTHEAST SOUTH CAROLINA...

CITY           SKY/WX    TMP DP  RH WIND       PRES   REMARKS
N CHARLESTON   MOSUNNY   87  74  64 VRB5      30.10R HX  95
WATERFRONT PRK   N/A     86  75  69 VRB3      30.08R HX  95
MOUNT PLEASANT FAIR      88  75  66 SW7       30.10R HX  97
JOHNS ISLAND   PTSUNNY   90  77  66 SW7       30.10S HX 102
PINOPOLIS        N/A     82  75  78 VRB3      30.03R
MONCKS CORNER  FAIR      84  72  65 SW8       30.10R
SUMMERVILLE    FAIR      86  75  70 SW7       30.10S HX  95
BEAUFORT MCAS  MOSUNNY   89  73  59 SW7       30.10S HX  97
BEAUFORT ARPT  FAIR      86  73  66 SW3       30.09S HX  93
HILTON HEAD IS MOSUNNY   91  72  52 SW5       30.11R HX  98
WALTERBORO     SUNNY     88  72  58 S9        30.10S HX  94
ALLENDALE      FAIR      86  72  62 S5        30.08S HX  92

...SOUTHERN MIDLANDS AND PEE DEE...

CITY           SKY/WX    TMP DP  RH WIND       PRES   REMARKS
GEORGETOWN     FAIR      86  75  70 SW8       30.10S HX  95
KINGSTREE      FAIR      86  72  62 SW6       30.09S HX  92
ORANGEBURG     SUNNY     85  72  65 SW8       30.09S HX  91
BARNWELL       NOT AVBL
AIKEN          FAIR      84  72  65 SW5       30.12S
MANNING        FAIR      84  70  61 S9        30.09S
COLUMBIA       CLOUDY    84  71  65 SW7       30.08R
SUMTER         MOSUNNY   85  71  63 SW10      30.06S HX  90
FLORENCE       SUNNY     86  71  60 SW10      30.08F HX  91
MYRTLE BEACH   PTSUNNY   86  70  58 W8        30.11S HX  90
N MYRTLE BEACH PTSUNNY   81  75  82 W8        30.09R

$$

GAZ063-065-086>088-099>101-113>116-118-119-134>141-150-251500-
...SOUTHEAST GEORGIA...

CITY           SKY/WX    TMP DP  RH WIND       PRES   REMARKS
SAVANNAH ARPT  MOSUNNY   85  71  63 S7        30.10S HX  90
HUNTER AAF     SUNNY     85  76  74 S7        30.08R HX  95
FORT STEWART   SUNNY     83  73  73 VRB2      30.08R
STATESBORO     SUNNY     86  74  68 W3        30.09F HX  93
SYLVANIA       NOT AVBL
CLAXTON        FAIR      85  74  68 CALM      30.09F HX  93

...CSRA...CENTRAL AND FAR SOUTHEAST GEORGIA...

CITY           SKY/WX    TMP DP  RH WIND       PRES   REMARKS
THOMSON        NOT AVBL
AUGUSTA-BUSH   SUNNY     86  71  60 SW6       30.07S HX  91
AUGUSTA-DANIEL SUNNY     85  73  67 S6        30.09S HX  91
SWAINSBORO     FAIR      84  73  70 CALM      30.10S HX  91
VIDALIA        SUNNY     86  72  62 CALM      30.09F HX  92
EASTMAN        FAIR      87  67  50 CALM      30.11S
HAZLEHURST     FAIR      87  77  72 CALM      30.08F HX  99
ALMA           SUNNY     83  73  72 CALM      30.09S
WAYCROSS       SUNNY     88  78  70 CALM      30.09S HX 101
JESUP          FAIR      86  77  74 CALM      30.10S HX  97
BAXLEY         FAIR      86  79  79 CALM      30.09S HX  99
BRUNSWICK      SUNNY     88  73  62 SW5       30.10F HX  96
SAINT SIMONS   SUNNY     85  72  65 SW3       30.09S HX  91

$$

SCZ027-028-034-036>038-045-046-048>050-GAZ119-141-251500-
...LAKE AND SUPPLEMENTAL COASTAL OBSERVATIONS...

STATION/POSITION TIME  TEMP    WIND        PRES    WAVE   SWELL
                       AIR SEA DIR/SP/G            HT/PER HT/PER/DIR
                 (UTC) (F)     (DEG/KT/KT) (MB)    (FT/S) (FT/S/D)
WINYAH BAY       1345   85     240/  7     1018.0S
LAKE MURRAY      1400   84     200/  4/  5 1017.9S
ACE BASIN NERRS  1300   85     240/  1     1019.0S
FORT PULASKI     1400   86 87  220/  7/ 12 1019.5R
SAPELO ISLAND    1400   86     210/  6     1019.0S

$$

ANZ835-935-AMZ111-154-330-350-352-354-370-450-454-472-251500-
...C-MAN AND BUOY OBSERVATIONS...

STATION/POSITION TIME  TEMP    WIND        PRES    WAVE   SWELL
                       AIR SEA DIR/SP/G            HT/PER HT/PER/DIR
                 (UTC) (F)     (DEG/KT/KT) (MB)    (FT/S) (FT/S/D)
BUOY 41004       1350   85 86  220/  6/  8 1019.0R   2/ 8   2/140/ 8
BUOY 41008       1350   84 86  230/  6/  8 1019.0R   2/ 4   2/190/ 4
FOLLY BEACH CMAN 1400   85     200/  8/  9 1019.4R
CAPERS NEARSHORE 1408   84 84  210/  8/ 10 1019.0S
FRIPP NEARSHORE  1408   85 86  260/  4/  6 1018.6R


STATION/POSITION TIME  TEMP    WIND        PRES    WAVE   SWELL
                       AIR SEA DIR/SP/G            HT/PER HT/PER/DIR
                 (UTC) (F)     (DEG/KT/KT) (MB)    (FT/S) (FT/S/D)
5E ST. MARYS GA  1401      86                N/A     2/ 8
FRYING PAN BUOY  1400   84 85  220/  8/ 10 1018.9S
BUOY 41025       1350   84 85  260/ 10/ 12 1018.4F   3/ 4   2/220/ 5
CAPE LOOKOUT NC  1400   85     260/ 11/ 13 1018.0F
BUOY 41002       1350   83 84  190/  4/  6 1020.2S   2/ 8   2/100/ 8
BUOY 41010       1320   84 86  170/  4/  6 1019.1R
ST AUGUSTINE FL  1400   80 85  120/  4/  5 1020.2R


$$




USA.gov is the U.S. government's official web portal to all federal, state and local government web resources and services.